Location: Krakow
(50.0830°N, 19.9170°E)
Time: 05:17:44
(UTC+01:00)

SR - Pass Details

Date: 17 February 2023
Orbit: 582 x 867 km, 66.7° (Epoch: 20 March)

Event Time Altitude Azimuth Distance (km) Brightness Sun altitude
Rises 14:06:33 0° 289° (WNW) 3,007 ? 21.5°
Reaches altitude 10° 14:10:36 10° 323° (NW) 2,027 ? 21.2°
Maximum altitude 14:12:07 11° 343° (NNW) 1,908 ? 21.0°
Drops below altitude 10° 14:13:38 10° 3° (N) 1,985 ? 20.9°
Sets 14:17:28 0° 38° (NE) 2,847 ? 20.5°
